Regional Weather Roundup
Issued by NWS Grand Forks, ND

Home | Current Version | Previous Version | Text Only | Print | Product List | Glossary Off
Versions: 1 2 3 4 5 6 7 8 9 10 11 12 13 14 15 16 17 18 19 20 21 22 23 24 25 26 27 28 29 30 31 32 33 34 35 36 37 38 39 40 41 42 43 44 45 46 47 48 49 50

000
ASUS43 KFGF 261931
RWRFGF
PRAIRIE TO PINES  WEATHER ROUNDUP
NATIONAL WEATHER SERVICE EASTERN NORTH DAKOTA/GRAND FORKS ND
200 PM CDT SUN APR 26 2015

 **SATELLITE DATA USED TO AUGMENT SKY COVER AT AUTOMATED STATIONS**
 *****  WEATHER ACROSS EASTERN NORTH DAKOTA  *****

CITY           SKY/WX    TMP DP  RH WIND       PRES   REMARKS
GRAND FORKS    MOSUNNY   64  26  23 VRB6      30.12F
GRAND FRKS AFB SUNNY     65  26  22 SW7       30.12S
GRAND FRKS NWS   N/A     61 N/A N/A N2          N/A
DEVILS LAKE    CLOUDY    57  45  62 W8        30.11S
FARGO          SUNNY     64  22  20 VRB5      30.12S
WAHPETON ARPT  CLEAR     63  19  19 E3        30.12S
$$

 ***** WEATHER ACROSS CENTRAL AND WESTERN NORTH DAKOTA  *****

CITY           SKY/WX    TMP DP  RH WIND       PRES   REMARKS
BISMARCK       CLOUDY    54  47  77 W5        30.10R
MINOT          CLOUDY    47  41  80 W3        30.10R
JAMESTOWN      NOT AVBL
MINOT AFB      PTSUNNY   50  48  93 VRB3      30.09S
GARRISON         N/A     47  43  86 NW5       30.10R
WILLISTON      PTSUNNY   50  35  56 N10       30.11F
DICKINSON      LGT RAIN  43  40  89 NE12      30.08R
HETTINGER      LGT RAIN  46  43  89 NE12      30.07S
$$

 *****  OTHER AIRPORT OBSERVATIONS IN OUR AREA  *****

CITY           SKY/WX    TMP DP  RH WIND       PRES   REMARKS
WALHALLA       FAIR      66  32  28 SW10      30.10S
GRAFTON AIRPOR FAIR      64  28  25 S13G20    30.13S
VALLEY CITY AR FAIR      63  32  31 SE9G20    30.11S
CANDO          MOCLDY    54  50  87 SW13      30.12S FOG
CAVALIER APRT  FAIR      64  32  29 S12G18    30.11S
GWINNER        CLEAR     64  32  29 SE9       30.12S
SHEYENNE NWR     N/A     64  26  23 SE8       29.95S
ROLLA          CLOUDY    48  48 100 SW12      30.12R
 ***** THE ABOVE OBSERVATIONS ARE NON NWS ARE NOT QUALITY
       CONTROLLED AND MAY MIS-REPORT RAIN FOR SNOW...
$$

  *****  WEATHER ACROSS NORTHERN MINNESOTA  *****

CITY           SKY/WX    TMP DP  RH WIND       PRES   REMARKS
FLAG ISLAND    SUNNY     48  32  53 S6        30.16F
WARROAD        SUNNY     52  30  43 NE13      30.16F
ROSEAU         MOSUNNY   63  28  27 E5        30.14S
HALLOCK        SUNNY     66  18  15 SE7G17    30.12F
THF RVR FALLS  SUNNY     61  27  27 NE5       30.14S
BAUDETTE       SUNNY     59  22  24 CALM      30.16S
WASKISH        SUNNY     57  30  35 W7        30.16S
CROOKSTON      SUNNY     64  27  24 S5        30.14S
$$
  *****  WEATHER ACROSS CENTRAL AND WEST MINNESOTA  *****

CITY           SKY/WX    TMP DP  RH WIND       PRES   REMARKS
FOSSTON        SUNNY     64  27  24 CALM      30.14S
BEMIDJI        SUNNY     60  23  24 E6        30.15S
PARK RAPIDS    SUNNY     59  17  19 CALM      30.13F
ELBOW LAKE     FAIR      60  26  27 NE9       30.12S
WADENA         SUNNY     59  25  27 NE3       30.13S
DETROIT LAKES  SUNNY     61  25  25 E5        30.14S
MOORHEAD       SUNNY     63  23  22 CALM      30.13S
FERGUS FALLS   SUNNY     61  18  18 E5        30.13S
MORRIS MN      SUNNY     63  27  25 E13       30.11S
STAPLES        SUNNY     57  12  17 NE7       30.14S
$$
  *****  WEATHER ELSEWHERE ACROSS MINNESOTA  *****

CITY           SKY/WX    TMP DP  RH WIND       PRES   REMARKS
DULUTH         SUNNY     52  21  29 E9        30.16S
INTRNTL FALLS  SUNNY     56  13  18 N7        30.18S
ELY            SUNNY     55  12  18 NE8       30.14F
CLOQUET        SUNNY     55  12  18 E6        30.15S
WHEATON        SUNNY     61  28  29 NE7       30.13S
BRAINERD       SUNNY     57  15  19 VRB3      30.14F
HIBBING        SUNNY     57  10  15 CALM      30.14F
ALEXANDRIA     SUNNY     58  20  22 E9        30.14S
SAINT CLOUD    SUNNY     58  20  22 NE9       30.12F
MINNEAPOLIS    SUNNY     58  22  24 CALM      30.11F
$$

  *****  WEATHER ACROSS SOUTH DAKOTA  *****

CITY           SKY/WX    TMP DP  RH WIND       PRES   REMARKS
SIOUX FALLS    NOT AVBL
BROOKINGS      SUNNY     61  32  33 NE7       30.08S
WATERTOWN      SUNNY     61  30  31 VRB3      30.08F
HURON          SUNNY     64  31  28 E8        30.06F
SISSETON         N/A     62  28  27 S5        30.10F
ABERDEEN       SUNNY     66  32  28 E10       30.08F
MITCHELL       SUNNY     63  34  33 SE13      30.07F
PIERRE         MOSUNNY   61  41  47 SE13G21   30.03S
MOBRIDGE       CLOUDY    63  38  39 S12       30.03F
RAPID CITY     CLOUDY    50  46  86 CALM      30.02R
$$

  *****  SOME WEATHER IN NEARBY STATES *****

CITY           SKY/WX    TMP DP  RH WIND       PRES   REMARKS
GLASGOW MT     CLOUDY    42  32  67 NW12      30.14R
GREAT FALLS MT CLOUDY    37  26  64 N5        30.18R
CHEYENNE WY    CLOUDY    43  39  86 E13       29.90F
SCOTTSBLUFF NE LGT RAIN  46  32  58 E16G25    29.95S
OMAHA NE       MOSUNNY   60  37  42 E12       30.03F
DES MOINES IA  MOSUNNY   62  26  25 NE15G21   30.05S
DAVENPORT IA   SUNNY     57  31  37 NE12      30.04F
CHICAGO IL     MOSUNNY   55  26  32 N17G23    30.01F
EAU CLAIRE WI  SUNNY     59  21  23 NE5       30.09F
LA CROSSE WI   SUNNY     61  25  25 W12       30.07F
$$

  *****  SOME NATIONAL WEATHER *****

CITY           SKY/WX    TMP DP  RH WIND       PRES   REMARKS
LA GUARDIA NY  PTSUNNY   59  27  29 CALM      29.66F
RALEIGH NC     CLOUDY    51  46  83 N6        29.73R
ATLANTA GA     MOSUNNY   81  57  43 NW16G24   29.67F
NEW ORLEANS LA PTSUNNY   83  68  60 CALM      29.75F
OKLAHOMA CITY  MOSUNNY   72  57  59 E14       29.72F
ALBUQUERQUE NM LGT RAIN  47  39  74 W9        29.75F
SALT LAKE CITY PTSUNNY   47  33  58 NW17      30.00R
LOS ANGELES CA MOSUNNY   67  47  48 W14       30.00F
BOISE ID       SUNNY     56  27  32 NW20G31   30.10F
SEATTLE WA     CLOUDY    54  37  52 S7        30.23R
$$

*** WEATHER ACROSS MANITOBA...SASKATCHEWAN AND ONTARIO ***
                ***ONTARIO***

CITY           SKY/WX    TMP DP  RH WIND       PRES   REMARKS
GERALDTON      MOSUNNY   52  27  37 NE9G18    30.14F
THUNDER BAY    MOSUNNY   55  27  33 E5        30.14F
SIOUX LOOKOUT  MOSUNNY   55  28  35 VRB5      30.19F
TORONTO        PTSUNNY   54  34  47 N16G29    29.82R
BIG TROUT LK   SUNNY     43  28  56 SW5       30.30F
PICKLE LAKE    MOSUNNY   50  25  37 NE8       30.22F
DRYDEN         SUNNY     54  18  24 VRB2      30.19S
KENORA         MOSUNNY   57  16  19 VRB3      30.18S
$$
                *** MANITOBA***

CITY           SKY/WX    TMP DP  RH WIND       PRES   REMARKS
BRANDON        CLOUDY    50  48  93 SW9       30.09R
DAUPHIN        CLOUDY    54  46  76 SW12      30.06R
ISLAND LAKE    PTSUNNY   54  18  24 SE9       30.22F
PILOT MOUND      N/A     52  46  82 S15         N/A
THE PAS        LGT RAIN  37  36  93 E10G20    30.01S FOG
THOMPSON       PTSUNNY   45  27  49 NE9       30.21F
WINNIPEG       PTSUNNY   66  32  28 S13G24    30.12S
LYNN LAKE      LGT SNOW  34  32  93 E13       30.24S WCI  25
CHURCHILL      PTSUNNY   27  21  80 NE13      30.42S WCI  16
GILLAM         CLOUDY    46  28  49 NE8       30.29S
$$
                ***SASKATCHEWAN***

CITY           SKY/WX    TMP DP  RH WIND       PRES   REMARKS
ESTEVAN        PTSUNNY   45  34  65 NW12G18   30.12R
KINDERSLEY     MOSUNNY   43  32  65 NW12G18   30.13S
LLOYDMINSTER   PTSUNNY   46   7  19 NE6       30.13S
PRINCE ALBERT  PTSUNNY   37  32  81 N16       30.06R
REGINA         CLOUDY    39  34  81 W17G23    30.11R
YORKTON        CLOUDY    45  36  70 SW15      30.04R
N. BATTLEFORD  NOT AVBL
LA RONGE       LGT SNOW  34  32  93 N10       30.13R VSB 1
SASKATOON      CLOUDY    37  30  75 NW12      30.12
SWIFT CURRENT  CLOUDY    37  32  81 NW12G17   30.12R
$$
NOTE: THESE ARE AUTOMATED STATIONS WITH LIMITED QUALITY CONTROL
      "FAIR" INDICATES FEW OR NO CLOUDS BELOW 12,000 FEET WITH NO
      SIGNIFICANT WEATHER AND/OR OBSTRUCTIONS TO VISIBILITY.
      SKY/WX - SKY CONDITION AND SIGNIFICANT WEATHER.
      TMP - AIR TEMPERATURE.    DP   - DEWPOINT TEMPERATURE.
      RH  - RELATIVE HUMIDITY.  PRES - PRESSURE.
      HX  - HEAT INDEX.         WCI  - WIND CHILL INDEX.
$



USA.gov is the U.S. government's official web portal to all federal, state and local government web resources and services.